Regional Weather Roundup
Issued by NWS

Home | Current Version | Previous Version | Graphics & Text | Print | Product List | Glossary On
Versions: 1 2 3 4 5 6 7 8 9 10 11 12 13 14 15 16 17 18 19 20 21 22 23 24 25 26 27 28 29 30 31 32 33 34 35 36 37 38 39 40 41 42 43 44 45 46 47 48 49 50
000
ASUS43 KDMX 201201
RWRIA

WEATHER ROUNDUP FOR IOWA
NATIONAL WEATHER SERVICE DES MOINES IA
700 AM CDT THU JUL 20 2017

NOTE: "FAIR" INDICATES FEW OR NO CLOUDS BELOW 12,000 FEET WITH NO
SIGNIFICANT WEATHER AND/OR OBSTRUCTIONS TO VISIBILITY.

* - THESE STATIONS ARE NOT NWS STATIONS...THUS NOT UNDER NWS
QUALITY CONTROL.  THEY ALSO DO NOT REPORT WEATHER SUCH
AS PRECIPITATION OR FOG.

IAZ001>003-012>014-020>022-031>034-043>046-201300-
   NORTHWEST IOWA

CITY           SKY/WX    TMP DP  RH WIND       PRES   REMARKS
CARROLL *      PTCLDY    75  73  94 W6        29.96R
CHEROKEE *     PTCLDY    73  71  94 N9        29.97R
DENISON *      MOCLDY    75  72  88 CALM      29.98R
ORANGE CITY *  CLOUDY    72  66  83 NE5       29.99R
SHELDON *      CLOUDY    68  66  94 CALM      29.98R
SIOUX CITY     CLOUDY    78  75  90 NW5       29.95R HX  81
6HR MIN TEMP:  77; 6HR MAX TEMP:  90;

SPENCER        PTCLDY    71  68  90 CALM      29.99R
6HR MIN TEMP:  69; 6HR MAX TEMP:  79;

STORM LAKE *   PTCLDY    75  73  94 N6        29.97R FOG
$$

IAZ055>058-069>071-079>083-090>094-201300-
   SOUTHWEST IOWA

CITY           SKY/WX    TMP DP  RH WIND       PRES   REMARKS
ATLANTIC *     CLOUDY    75  72  88 S8        29.96R
AUDUBON *      PTCLDY    75  72  88 CALM      29.98R
CLARINDA *     CLEAR     73  72  94 S5        30.01R
COUNCIL BLFS * PTCLDY    81  72  74 SW12      29.96R HX  84
CRESTON *      CLEAR     75  72  88 SW8       30.01S
HARLAN  *      MOCLDY    75  73  94 CALM      30.01R
LAMONI         MOCLDY    76  72  87 SW7       30.01R
6HR MIN TEMP:  75; 6HR MAX TEMP:  80;

RED OAK *      CLEAR     73  72  94 S3        29.98S
SHENANDOAH *   CLEAR     73  72  94 CALM      29.99S
$$

IAZ047>049-059>061-072>074-084-201300-
   CENTRAL IOWA

CITY           SKY/WX    TMP DP  RH WIND       PRES   REMARKS
AMES           CLOUDY    78  73  84 SW8       29.93R HX  81
6HR MIN TEMP:  76; 6HR MAX TEMP:  83;

ANKENY *       PTCLDY    81  72  74 SW10      29.95R HX  84
BOONE *        PTCLDY    79  72  78 SW8       29.94R HX  82
CHARITON *     MOCLDY    79  72  78 SW8       29.99R HX  82
DES MOINES     MOCLDY    81  71  71 SW15      29.93F HX  85
6HR MIN TEMP:  80; 6HR MAX TEMP:  84;

GRINNELL*      PTSUNNY   78  71  78 SW8       29.97R HX  80
KNOXVILLE *    PTSUNNY   79  72  78 SW7       29.96S HX  82
MARSHALLTOWN   PTSUNNY   77  74  90 NW3       29.95R
6HR MIN TEMP:  76; 6HR MAX TEMP:  82;

NEWTON *       MOSUNNY   77  72  83 SW7       29.95R
PELLA *        MOSUNNY   80  70  73 SW9       29.96F HX  82
PERRY *          N/A     76  73  91 SW3       29.95R
$$

IAZ004>006-015-016-023>025-035-036-201300-
   NORTH CENTRAL IOWA

CITY           SKY/WX    TMP DP  RH WIND       PRES   REMARKS
ALGONA *       MOCLDY    72  72 100 N3        29.98R
ESTHERVILLE    CLOUDY    68  68 100 N7        29.98R
6HR MIN TEMP:  67; 6HR MAX TEMP:  74;

FORT DODGE *   PTCLDY    75  72  88 N3        29.98R
MASON CITY     PTSUNNY   74  71  91 N8        29.98R
6HR MIN TEMP:  72; 6HR MAX TEMP:  79;

FOREST CITY *    N/A     72  72 100 N7        29.97R
WEBSTER CITY * CLEAR     75  73  94 W6        29.94R
IOWA FALLS *     N/A     75  73  93 N5        29.97R FOG
$$

IAZ007>011-017>019-026>030-037>042-050>054-066-201300-
   NORTHEAST IOWA

CITY           SKY/WX    TMP DP  RH WIND       PRES   REMARKS
CEDAR RAPIDS   PTSUNNY   77  76  96 CALM      29.96R
6HR MIN TEMP:  75; 6HR MAX TEMP:  77;

CHARLES CITY * CLOUDY    73  73 100 E10       29.96S
CLINTON *      CLOUDY    70  68  93 E13       30.03R
DECORAH *      CLOUDY    68  66  94 SE12G18   29.98F
DUBUQUE        CLOUDY    68  66  93 E9        30.02F
6HR MIN TEMP:  67; 6HR MAX TEMP:  75; 6HR PCP:  0.16;

MONTICELLO *   CLOUDY    72  68  88 E6        29.99S
OELWEIN *      PTSUNNY   73  73 100 E8        29.98F
WATERLOO       MOSUNNY   75  73  93 NE6       29.95R FOG
6HR MIN TEMP:  73; 6HR MAX TEMP:  77;

$$

IAZ064-065-067-068-078-201300-
   EAST CENTRAL IOWA

CITY           SKY/WX    TMP DP  RH WIND       PRES   REMARKS
DAVENPORT      CLOUDY    75  70  84 NE20      30.04R
6HR MIN TEMP:  73; 6HR MAX TEMP:  79;

IOWA CITY      PTSUNNY   80  74  81 SW5       29.96S HX  85
6HR MIN TEMP:  77; 6HR MAX TEMP:  80;

MUSCATINE *    PTSUNNY   81  72  74 SW10      29.95F HX  84
QUAD CITIES    CLOUDY    80  71  74 VRB3      29.97R HX  84
6HR MIN TEMP:  75; 6HR MAX TEMP:  80; 6HR PCP: TRACE;

$$

IAZ062-063-075>077-085>089-095>099-201300-
   SOUTHEAST IOWA

CITY           SKY/WX    TMP DP  RH WIND       PRES   REMARKS
BURLINGTON     CLOUDY    78  73  84 SW8       29.99R HX  81
6HR MIN TEMP:  77; 6HR MAX TEMP:  80;

FAIRFIELD *    PTSUNNY   79  72  78 SW8       29.98R HX  82
FORT MADISON * PTSUNNY   79  72  78 SW8       30.01S HX  82
KEOKUK *       PTSUNNY   77  72  83 SW7       30.00S
OSKALOOSA *      N/A     78  71  78 SW7       29.98S HX  81
OTTUMWA        PTSUNNY   81  71  71 SW8       29.97R HX  85
6HR MIN TEMP:  80; 6HR MAX TEMP:  81;

WASHINGTON *   MOSUNNY   79  73  83 SW9       29.97F HX  82
$$

ABBREVIATIONS USED IN REMARKS
   TC - TEMPERATURES IN CELSIUS
  WCI - WIND CHILL INDEX
   HX - HEAT INDEX
  VSB - VISIBILITY
$$





USA.gov is the U.S. government's official web portal to all federal, state and local government web resources and services.